TimeCST,TemperatureF,Dew PointF,Humidity,Sea Level PressureIn,VisibilityMPH,Wind Direction,Wind SpeedMPH,Gust SpeedMPH,PrecipitationIn,Events,Conditions,WindDirDegrees,DateUTC
12:54 AM,34.0,12.9,42,30.27,10.0,East,10.4,-,N/A,,Clear,90,2013-02-20 06:54:00
1:54 AM,33.1,12.0,42,30.26,10.0,East,12.7,-,N/A,,Scattered Clouds,90,2013-02-20 07:54:00
2:54 AM,32.0,10.0,40,30.24,10.0,East,10.4,19.6,N/A,,Mostly Cloudy,90,2013-02-20 08:54:00
3:54 AM,32.0,10.0,40,30.24,10.0,East,10.4,-,N/A,,Overcast,90,2013-02-20 09:54:00
4:54 AM,30.9,10.0,42,30.23,10.0,East,11.5,19.6,N/A,,Overcast,80,2013-02-20 10:54:00
5:54 AM,30.0,10.0,43,30.25,10.0,East,12.7,21.9,N/A,,Overcast,80,2013-02-20 11:54:00
6:54 AM,30.9,10.9,43,30.28,10.0,SE,6.9,-,N/A,,Overcast,130,2013-02-20 12:54:00
7:54 AM,28.0,21.0,75,30.30,2.5,ESE,10.4,19.6,0.00,Snow,Light Snow,110,2013-02-20 13:54:00
8:05 AM,26.6,21.2,80,30.27,1.5,ESE,9.2,-,0.00,Snow,Light Snow,120,2013-02-20 14:05:00
8:16 AM,26.6,23.0,86,30.27,0.5,ESE,10.4,-,0.00,Fog-Snow,Snow,120,2013-02-20 14:16:00
9:12 AM,26.6,24.8,93,30.24,0.8,East,10.4,-,0.00,Snow,Light Snow,90,2013-02-20 15:12:00
9:22 AM,26.6,24.8,93,30.24,0.5,East,9.2,-,0.01,Fog-Snow,Snow,90,2013-02-20 15:22:00
9:54 AM,26.1,25.0,96,30.27,0.5,East,11.5,-,0.03,Fog-Snow,Snow,90,2013-02-20 15:54:00
10:00 AM,26.6,24.8,93,30.23,0.8,East,10.4,-,0.00,Snow,Light Snow,90,2013-02-20 16:00:00
10:11 AM,26.6,24.8,93,30.22,0.5,East,9.2,-,0.00,Fog-Snow,Snow,90,2013-02-20 16:11:00
10:38 AM,26.6,24.8,93,30.22,1.0,East,11.5,18.4,0.01,Snow,Light Snow,100,2013-02-20 16:38:00
10:54 AM,27.0,26.1,96,30.25,0.8,East,11.5,-,0.02,Snow,Light Snow,100,2013-02-20 16:54:00
11:00 AM,28.4,26.6,93,30.21,0.5,East,13.8,-,0.00,Fog-Snow,Snow,100,2013-02-20 17:00:00
11:14 AM,28.4,26.6,93,30.20,0.8,East,12.7,-,0.01,Snow,Light Snow,90,2013-02-20 17:14:00
11:21 AM,28.4,26.6,93,30.20,1.0,East,12.7,20.7,0.01,Snow,Light Snow,100,2013-02-20 17:21:00
11:28 AM,28.4,26.6,93,30.20,1.2,East,11.5,20.7,0.01,Snow,Light Snow,100,2013-02-20 17:28:00
11:50 AM,28.4,26.6,93,30.19,2.0,East,13.8,-,0.01,Snow,Light Snow,100,2013-02-20 17:50:00
11:54 AM,28.9,26.1,89,30.22,2.0,East,15.0,-,0.01,Snow,Light Snow,100,2013-02-20 17:54:00
12:01 PM,28.4,26.6,93,30.18,1.5,East,13.8,-,0.00,Snow,Light Snow,100,2013-02-20 18:01:00
12:34 PM,28.4,26.6,93,30.18,0.5,East,15.0,-,0.00,Fog-Snow,Snow,100,2013-02-20 18:34:00
12:43 PM,28.4,26.6,93,30.18,0.5,East,13.8,-,0.01,Fog-Snow,Snow,90,2013-02-20 18:43:00
12:54 PM,28.9,27.0,92,30.20,0.5,East,13.8,-,0.01,Fog-Snow,Snow,100,2013-02-20 18:54:00
1:21 PM,28.4,26.6,93,30.15,0.8,East,15.0,20.7,0.01,Snow,Light Snow,100,2013-02-20 19:21:00
1:35 PM,28.4,26.6,93,30.14,1.0,East,12.7,21.9,0.01,Snow,Light Snow,100,2013-02-20 19:35:00
1:44 PM,28.4,26.6,93,30.13,1.5,East,11.5,-,0.01,Snow,Light Snow,90,2013-02-20 19:44:00
1:54 PM,30.0,28.0,92,30.16,1.8,East,12.7,-,0.01,Snow,Light Snow,100,2013-02-20 19:54:00
2:01 PM,30.2,26.6,86,30.12,2.0,East,17.3,23.0,0.00,Snow,Light Snow,100,2013-02-20 20:01:00
2:11 PM,30.2,26.6,86,30.11,1.8,East,15.0,-,0.00,Snow,Light Snow,100,2013-02-20 20:11:00
2:32 PM,30.2,28.4,93,30.09,2.5,East,16.1,-,0.00,Snow,Light Snow,90,2013-02-20 20:32:00
2:46 PM,30.2,28.4,93,30.09,3.0,East,15.0,-,0.00,Snow,Light Snow,100,2013-02-20 20:46:00
2:54 PM,30.9,28.0,89,30.12,5.0,East,15.0,-,0.00,,Overcast,90,2013-02-20 20:54:00
3:05 PM,30.2,28.4,93,30.08,7.0,East,16.1,21.9,N/A,,Overcast,100,2013-02-20 21:05:00
3:54 PM,32.0,28.9,88,30.09,10.0,East,16.1,25.3,N/A,,Overcast,100,2013-02-20 21:54:00
4:54 PM,32.0,30.0,92,30.08,10.0,East,15.0,19.6,N/A,,Overcast,100,2013-02-20 22:54:00
5:54 PM,33.1,30.0,89,30.05,9.0,East,12.7,-,0.00,,Overcast,100,2013-02-20 23:54:00
6:17 PM,33.8,30.2,87,30.02,4.0,East,15.0,21.9,0.00,Snow,Light Snow,100,2013-02-21 00:17:00
6:54 PM,33.1,30.9,92,30.07,3.0,East,9.2,-,0.00,Snow,Light Snow,100,2013-02-21 00:54:00
7:13 PM,33.8,30.2,87,30.04,2.5,ESE,11.5,18.4,0.00,Snow,Light Snow,110,2013-02-21 01:13:00
7:24 PM,33.8,30.2,87,30.03,4.0,East,12.7,-,0.00,Snow,Light Snow,100,2013-02-21 01:24:00
7:34 PM,33.8,30.2,87,30.03,4.0,East,15.0,-,0.01,Snow,Light Snow,100,2013-02-21 01:34:00
7:54 PM,32.0,27.0,82,30.07,3.0,East,16.1,25.3,0.01,Snow,Light Snow,100,2013-02-21 01:54:00
8:23 PM,30.2,28.4,93,30.05,2.0,East,16.1,21.9,0.00,Snow,Light Snow,80,2013-02-21 02:23:00
8:34 PM,30.2,26.6,86,30.05,1.5,East,11.5,-,0.00,Snow,Light Snow,90,2013-02-21 02:34:00
8:54 PM,28.9,27.0,92,30.09,1.2,East,12.7,19.6,0.01,Snow,Light Snow,80,2013-02-21 02:54:00
9:01 PM,28.4,26.6,93,30.06,2.0,East,11.5,20.7,0.00,Snow,Light Snow,80,2013-02-21 03:01:00
9:27 PM,28.4,26.6,93,30.05,2.5,East,12.7,-,0.00,Snow,Light Snow,90,2013-02-21 03:27:00
9:33 PM,28.4,26.6,93,30.05,3.0,East,8.1,-,0.00,Snow,Light Snow,90,2013-02-21 03:33:00
9:38 PM,28.4,26.6,93,30.05,2.5,East,11.5,-,0.00,Snow,Light Snow,80,2013-02-21 03:38:00
9:42 PM,28.4,26.6,93,30.04,1.8,East,12.7,17.3,0.01,Snow,Light Snow,80,2013-02-21 03:42:00
9:54 PM,28.0,26.1,92,30.07,2.0,East,16.1,24.2,0.01,Snow,Light Snow,80,2013-02-21 03:54:00
10:08 PM,28.4,26.6,93,30.02,1.2,East,11.5,21.9,0.00,Snow,Light Snow,80,2013-02-21 04:08:00
10:24 PM,28.4,26.6,93,30.03,3.0,East,12.7,-,0.01,Snow,Light Snow,90,2013-02-21 04:24:00
10:54 PM,28.0,25.0,88,30.06,7.0,East,12.7,20.7,0.01,,Overcast,80,2013-02-21 04:54:00
11:54 PM,28.0,25.0,88,30.04,10.0,East,13.8,23.0,N/A,,Overcast,90,2013-02-21 05:54:00